This is the latest recevied weather packets stored in our database for station/object WA0GMH-1. If no packets are shown the sender has not sent any weather packets the latest 10 day(s).
| Time | Temp. | Humidity | Pressure | Rain* | Wind** | Luminosity | Snow |
|---|---|---|---|---|---|---|---|
| 1777947669 | 11.67° C | 85% | 1009.1 hPa | 0 mm | - | - | - |
| 1777947267 | 11.67° C | 100% | 1009 hPa | 0 mm | - | - | - |
| 1777946865 | 11.67° C | 85% | 1008.9 hPa | 0 mm | - | - | - |
| 1777946462 | 11.67° C | 85% | 1009 hPa | 0 mm | - | - | - |
| 1777946060 | 12.22° C | 84% | 1008.8 hPa | 0 mm | - | - | - |
| 1777945657 | 12.22° C | 82% | 1008.8 hPa | 0 mm | - | - | - |
| 1777945256 | 12.78° C | 81% | 1008.9 hPa | 0 mm | - | - | - |
| 1777944853 | 12.78° C | 80% | 1008.9 hPa | 0 mm | - | - | - |
| 1777944451 | 12.78° C | 79% | 1008.8 hPa | 0 mm | - | - | - |
| 1777944048 | 12.78° C | 79% | 1008.9 hPa | 0 mm | - | - | - |
| 1777943647 | 12.78° C | 78% | 1009.1 hPa | 0 mm | - | - | - |
| 1777943244 | 13.33° C | 78% | 1009.1 hPa | 0 mm | - | - | - |
| 1777942842 | 13.33° C | 77% | 1009 hPa | 0 mm | - | - | - |
| 1777942439 | 13.33° C | 77% | 1009 hPa | 0 mm | - | - | - |
| 1777942038 | 13.33° C | 78% | 1009 hPa | 0 mm | - | - | - |
| 1777941635 | 13.33° C | 77% | 1008.9 hPa | 0 mm | - | - | - |
| 1777941233 | 13.33° C | 77% | 1008.9 hPa | 0 mm | - | - | - |
| 1777940831 | 13.89° C | 77% | 1008.7 hPa | 0 mm | - | - | - |
| 1777940429 | 13.89° C | 77% | 1008.7 hPa | 0 mm | - | - | - |
| 1777940026 | 13.89° C | 77% | 1008.5 hPa | 0 mm | - | - | - |
| 1777939624 | 13.89° C | 77% | 1008.6 hPa | 0 mm | - | - | - |
| 1777939222 | 13.89° C | 78% | 1008.6 hPa | 0 mm | - | - | - |
| 1777938820 | 13.89° C | 77% | 1008.7 hPa | 0 mm | - | - | - |
| 1777938417 | 13.89° C | 76% | 1008.8 hPa | 0 mm | - | - | - |
| 1777938015 | 14.44° C | 77% | 1008.7 hPa | 0 mm | - | - | - |
* Rain since midnight (hover to see other rain measurements)
** Current wind speed in m/s (hover to see current wind gust speed)